STARLINK-1156 (45054 NORAD) Tracking and Keplerian Element Data

This shows tracking and keplerian element data for the satellite.

Feedback or suggestion? Click here.




ElementValue
Catalog45054
NameSTARLINK-1156
Epoch Orbit175
Epoch Day189.91668981
Epoch Year2020
RAAN222.6798
Inclination52.9973
Eccentricity7.15E-05
Argument of Perigee130.2531
Mean Anonmoly34.938
Mean Motion15.05566786
Decay Rate0.00027663
L11 45054U 20006L 20189.91668981 .00027663 00000-0 19110-2 0 9992
L22 45054 52.9973 222.6798 0000715 130.2531 34.9380 15.05566786 1758

Live tracking and technical data element details for STARLINK-1156 (NORAD 45054). STARLINK-1156 can be tracked NOW for your location showing map with azimuth and elevation plus other details from your city location.

Track the satellite on the map from your city or location and see movement details for azimuth, elevation, latitude, longitude, range, height, and movement on the map or in text.







IsCatalogInMostPopularTable: catalog: 45054, numindb: 29
Update: records affected: 1



GetName: 45054 STARLINK-1156

Hit Count: updated at: Thu, 09 Jul 2020 02:46:16 GMT